Monticello, IA

12:53 PM CDT on August 24, 2016 (GMT -0500)
Monticello Regional

Weather History for KMXO - February, 2013

Change the Weather History Date:

Monday, February 18, 2013

  Actual Average Record
Temperature  
Mean Temperature 34 °F -  
Max Temperature 50 °F 34 °F 55 °F (2002)
Min Temperature 15 °F 20 °F -18 °F (2006)
Degree Days  
Heating Degree Days 32    
Moisture  
Dew Point 26 °F    
Average Humidity 74    
Maximum Humidity 87    
Minimum Humidity 58    
Precipitation  
Precipitation 0.02 in - - ()
Sea Level Pressure  
Sea Level Pressure 29.63 in    
Wind  
Wind Speed 14 mph (SW)    
Max Wind Speed 30 mph    
Max Gust Speed 41 mph    
Visibility 9 miles    
Events Rain , Snow    
Averages and records for this station are not official NWS values.
T = Trace of Precipitation, MM = Missing Value Source: NWS Daily Summary

Daily Weather History Graph

Daily Weather History Graph

Search for Another Location

Airport or City:

Trip Planner

Search our weather history database for the weather conditions in past years. The results will help you decide how hot, cold, wet, or windy it might be!

Date:

Astronomy

Feb. 18, 2013 Rise Set
Actual Time 6:56 AM CST 5:41 PM CST
Civil Twilight 6:27 AM CST 6:09 PM CST
Nautical Twilight 5:55 AM CST 6:42 PM CST
Astronomical Twilight 5:22 AM CST 7:15 PM CST
Moon 11:24 AM CST (2/18) 1:39 AM CST (2/18)
Length of Visible Light 11h 42m
Length of Day
10h 45m
First Quarter, 58% of the Moon is Illuminated
Feb 18
First Quarter
Feb 25
Full
Mar 4
Last Quarter
Mar 11
New
Mar 19
First Quarter

Hourly Weather History & Observations

Time (CST) Temp. Windchill Dew Point Humidity Pressure Visibility Wind Dir Wind Speed Gust Speed Precip Events Conditions
12:15 AM 32.0 °F 23.0 °F 24.8 °F 75% 29.78 in 10.0 mi SE 11.5 mph - N/A   Clear
12:55 AM 33.8 °F 24.8 °F 24.8 °F 70% 29.77 in 10.0 mi SE 12.7 mph - N/A   Clear
1:15 AM 32.0 °F 22.5 °F 24.8 °F 75% 29.75 in 10.0 mi SE 12.7 mph - N/A   Clear
1:35 AM 33.8 °F 24.8 °F 24.8 °F 70% 29.74 in 10.0 mi SE 12.7 mph 17.3 mph N/A   Clear
1:55 AM 32.0 °F 23.6 °F 24.8 °F 75% 29.73 in 10.0 mi SE 10.4 mph - N/A   Clear
2:15 AM 32.0 °F 24.2 °F 24.8 °F 75% 29.73 in 10.0 mi SE 9.2 mph - N/A   Clear
2:35 AM 33.8 °F 25.3 °F 26.6 °F 75% 29.71 in 10.0 mi SE 11.5 mph - N/A   Clear
2:55 AM 33.8 °F 25.3 °F 26.6 °F 75% 29.70 in 10.0 mi SE 11.5 mph - N/A   Clear
3:15 AM 33.8 °F 26.4 °F 26.6 °F 75% 29.69 in 10.0 mi SE 9.2 mph - N/A   Clear
3:35 AM 33.8 °F 26.4 °F 26.6 °F 75% 29.68 in 10.0 mi SE 9.2 mph - N/A   Clear
3:55 AM 33.8 °F 26.4 °F 26.6 °F 75% 29.67 in 10.0 mi SE 9.2 mph - N/A   Clear
4:15 AM 33.8 °F 27.0 °F 26.6 °F 75% 29.67 in 10.0 mi SE 8.1 mph - N/A   Clear
4:35 AM 33.8 °F 26.4 °F 26.6 °F 75% 29.66 in 10.0 mi SE 9.2 mph - N/A   Clear
4:55 AM 33.8 °F 25.3 °F 26.6 °F 75% 29.65 in 10.0 mi SE 11.5 mph - N/A   Clear
5:15 AM 33.8 °F 25.8 °F 26.6 °F 75% 29.64 in 10.0 mi SE 10.4 mph - N/A   Clear
5:35 AM 33.8 °F 25.8 °F 26.6 °F 75% 29.63 in 10.0 mi SE 10.4 mph - N/A   Clear
5:55 AM 33.8 °F 26.4 °F 26.6 °F 75% 29.63 in 10.0 mi SE 9.2 mph - N/A   Clear
6:15 AM 33.8 °F 25.8 °F 26.6 °F 75% 29.62 in 10.0 mi SSE 10.4 mph - N/A   Clear
6:35 AM 33.8 °F 25.8 °F 26.6 °F 75% 29.62 in 10.0 mi SSE 10.4 mph - N/A   Clear
6:55 AM 32.0 °F 23.0 °F 26.6 °F 80% 29.62 in 10.0 mi SSE 11.5 mph - N/A   Clear
7:15 AM 33.8 °F 25.3 °F 26.6 °F 75% 29.62 in 10.0 mi SE 11.5 mph - N/A   Clear
7:35 AM 33.8 °F 25.3 °F 26.6 °F 75% 29.61 in 10.0 mi SE 11.5 mph - N/A   Clear
7:55 AM 33.8 °F 24.3 °F 28.4 °F 81% 29.61 in 10.0 mi SSE 13.8 mph - N/A   Clear
8:15 AM 33.8 °F 25.3 °F 28.4 °F 81% 29.60 in 10.0 mi SSE 11.5 mph - N/A   Clear
8:35 AM 35.6 °F 27.1 °F 28.4 °F 75% 29.59 in 10.0 mi SSE 12.7 mph - N/A   Clear
8:55 AM 35.6 °F 27.1 °F 30.2 °F 81% 29.59 in 10.0 mi SSE 12.7 mph - N/A   Clear
9:15 AM 37.4 °F 29.8 °F 30.2 °F 75% 29.59 in 10.0 mi SSE 11.5 mph - N/A   Clear
9:35 AM 37.4 °F 30.8 °F 30.2 °F 75% 29.59 in 10.0 mi SSE 9.2 mph - N/A   Clear
9:55 AM 39.2 °F 34.2 °F 32.0 °F 75% 29.59 in 10.0 mi SSE 6.9 mph - N/A   Clear
10:35 AM 44.6 °F 40.2 °F 35.6 °F 71% 29.57 in 10.0 mi South 8.1 mph - N/A   Clear
10:55 AM 46.4 °F 42.9 °F 35.6 °F 66% 29.57 in 10.0 mi SSW 6.9 mph - N/A   Clear
11:15 AM 46.4 °F 41.5 °F 35.6 °F 66% 29.56 in 10.0 mi SSW 10.4 mph - N/A   Clear
11:35 AM 48.2 °F - 35.6 °F 62% 29.56 in 10.0 mi SW 10.4 mph - N/A   Clear
11:55 AM 50.0 °F - 37.4 °F 62% 29.55 in 10.0 mi SW 12.7 mph 17.3 mph N/A   Clear
12:15 PM 48.2 °F - 35.6 °F 62% 29.54 in 10.0 mi SW 13.8 mph - N/A   Scattered Clouds
12:35 PM 50.0 °F - 35.6 °F 58% 29.54 in 10.0 mi SW 10.4 mph - N/A   Mostly Cloudy
12:55 PM 48.2 °F - 35.6 °F 62% 29.53 in 10.0 mi WSW 10.4 mph - N/A   Mostly Cloudy
1:15 PM 48.2 °F - 35.6 °F 62% 29.52 in 10.0 mi West 8.1 mph - N/A   Overcast
1:35 PM 46.4 °F 42.4 °F 35.6 °F 66% 29.53 in 10.0 mi West 8.1 mph - N/A   Overcast
1:55 PM 44.6 °F 38.8 °F 35.6 °F 71% 29.54 in 7.0 mi WNW 11.5 mph - N/A   Light Drizzle
2:15 PM 42.8 °F 35.8 °F 33.8 °F 70% 29.53 in 10.0 mi WNW 13.8 mph 19.6 mph N/A Rain Light Rain
2:35 PM 42.8 °F 36.6 °F 35.6 °F 76% 29.54 in 10.0 mi WNW 11.5 mph - N/A   Mostly Cloudy
2:55 PM 42.8 °F 33.3 °F 33.8 °F 70% 29.54 in 10.0 mi WNW 24.2 mph 28.8 mph N/A   Mostly Cloudy
3:15 PM 41.0 °F 32.2 °F 33.8 °F 76% 29.55 in 7.0 mi NW 18.4 mph 24.2 mph N/A   Mostly Cloudy
3:35 PM 39.2 °F 32.0 °F 32.0 °F 75% 29.55 in 5.0 mi NW 11.5 mph - N/A   Overcast
3:55 PM 37.4 °F 28.5 °F 32.0 °F 81% 29.56 in 4.0 mi NW 15.0 mph 21.9 mph N/A   Overcast
4:15 PM 37.4 °F 29.3 °F 32.0 °F 81% 29.57 in 3.0 mi NW 12.7 mph 23.0 mph 0.02 in Snow Snow
4:35 PM 33.8 °F 22.5 °F 30.2 °F 87% 29.57 in 1.2 mi NW 19.6 mph 26.5 mph 0.02 in Snow Light Snow
4:55 PM 33.8 °F 23.2 °F 28.4 °F 81% 29.57 in 3.0 mi NW 17.3 mph 26.5 mph 0.02 in Snow Light Snow
5:15 PM 33.8 °F 21.9 °F 28.4 °F 81% 29.58 in 7.0 mi NW 21.9 mph 33.4 mph N/A Snow Light Snow
5:35 PM 32.0 °F 20.1 °F 26.6 °F 80% 29.59 in 10.0 mi NW 19.6 mph 36.8 mph N/A   Overcast
5:55 PM 30.2 °F 17.4 °F 24.8 °F 80% 29.60 in 7.0 mi NW 20.7 mph 31.1 mph N/A Snow Light Snow
6:15 PM 30.2 °F 17.4 °F 24.8 °F 80% 29.61 in 10.0 mi NW 20.7 mph 33.4 mph N/A   Overcast
6:35 PM 28.4 °F 13.8 °F 23.0 °F 80% 29.61 in 10.0 mi NW 25.3 mph 36.8 mph N/A   Overcast
6:55 PM 28.4 °F 13.3 °F 21.2 °F 74% 29.62 in 10.0 mi WNW 27.6 mph 36.8 mph N/A   Overcast
7:15 PM 26.6 °F 12.0 °F 21.2 °F 80% 29.64 in 10.0 mi NW 23.0 mph 41.4 mph N/A   Overcast
7:35 PM 26.6 °F 10.6 °F 19.4 °F 74% 29.65 in 10.0 mi WNW 28.8 mph 36.8 mph N/A   Overcast
7:55 PM 24.8 °F 8.4 °F 17.6 °F 74% 29.66 in 10.0 mi NW 27.6 mph 36.8 mph N/A   Overcast
8:15 PM 24.8 °F 9.0 °F 17.6 °F 74% 29.66 in 10.0 mi WNW 25.3 mph 31.1 mph N/A   Overcast
8:35 PM 24.8 °F 8.4 °F 17.6 °F 74% 29.67 in 10.0 mi NW 27.6 mph 40.3 mph N/A   Overcast
8:55 PM 23.0 °F 5.4 °F 15.8 °F 74% 29.68 in 10.0 mi WNW 29.9 mph 38.0 mph N/A   Overcast
9:15 PM 21.2 °F 4.5 °F 15.8 °F 80% 29.70 in 10.0 mi West 24.2 mph 36.8 mph N/A   Overcast
9:35 PM 21.2 °F 3.5 °F 14.0 °F 74% 29.70 in 10.0 mi WNW 27.6 mph 33.4 mph N/A   Overcast
9:55 PM 19.4 °F 2.1 °F 12.2 °F 74% 29.72 in 7.0 mi West 24.2 mph 33.4 mph N/A Snow Light Snow
10:15 PM 19.4 °F 1.1 °F 12.2 °F 74% 29.72 in 10.0 mi WNW 27.6 mph 41.4 mph N/A   Overcast
10:35 PM 17.6 °F -1.3 °F 10.4 °F 73% 29.73 in 10.0 mi WNW 27.6 mph 38.0 mph N/A Snow Light Snow
10:55 PM 17.6 °F -0.6 °F 10.4 °F 73% 29.74 in 10.0 mi WNW 25.3 mph 35.7 mph N/A   Overcast
11:15 PM 17.6 °F -0.3 °F 10.4 °F 73% 29.75 in 10.0 mi WNW 24.2 mph 33.4 mph N/A   Overcast
11:35 PM 17.6 °F -1.0 °F 8.6 °F 68% 29.75 in 10.0 mi WNW 26.5 mph 34.5 mph N/A   Overcast
11:55 PM 15.8 °F -3.7 °F 8.6 °F 73% 29.76 in 10.0 mi WNW 27.6 mph 39.1 mph N/A   Overcast